Location: Northeast Philadelphia Airport
(40.0833°N, 75.0000°W)
Time: 12:59:16
(UTC-04:00)

Tiangong 2 - Visible Passes

Search period start: 19 August 2018 00:00
Search period end: 29 August 2018 00:00
Orbit: 384 x 395 km, 42.8° (Epoch: 19 August)

Date Brightness Start Highest point End Pass type
(mag) Time Alt. Az. Time Alt. Az. Time Alt. Az.
19 Aug 2.8 04:06:55 27° ESE 04:06:55 27° ESE 04:08:50 10° E visible
19 Aug 1.4 05:39:28 10° W 05:42:39 63° NNW 05:45:51 10° ENE visible
20 Aug 1.0 04:44:01 50° W 04:44:44 85° NNW 04:47:57 10° ENE visible
21 Aug 3.5 03:48:46 22° E 03:48:46 22° E 03:50:02 10° ENE visible
21 Aug 1.7 05:21:05 13° W 05:23:48 51° N 05:26:57 10° ENE visible
22 Aug 1.4 04:25:51 61° N 04:25:51 61° N 04:29:01 10° ENE visible
23 Aug 4.3 03:30:37 14° ENE 03:30:37 14° ENE 03:31:06 10° ENE visible
23 Aug 1.8 05:02:56 19° WNW 05:04:57 49° N 05:08:05 10° ENE visible
24 Aug 2.5 04:07:46 38° NE 04:07:46 38° NE 04:10:06 10° ENE visible
24 Aug 1.4 05:40:50 10° WNW 05:44:02 69° NNE 05:47:14 10° E visible
25 Aug 1.6 04:45:00 34° NW 04:46:04 55° N 04:49:13 10° E visible
26 Aug 3.7 03:50:00 20° ENE 03:50:00 20° ENE 03:51:12 10° E visible
26 Aug 1.0 05:22:20 13° WNW 05:25:04 79° SSW 05:28:15 10° ESE visible
27 Aug 1.5 04:27:28 63° ENE 04:27:28 63° ENE 04:30:18 10° E visible
28 Aug 1.4 05:05:10 36° WSW 05:05:58 46° SSW 05:09:03 10° SE visible
